Flag for Germany Past Weather in Brandenburg an der Havel, Brandenburg, Germany — Yesterday and Last 2 Weeks

Now
32 °F

Clear.


Feels Like: 26 °F
Forecast: 19 / 28 °F
Wind: 6 mph from East

Location: Berlin-Tegel

Current Time: Jan 22, 2017 at 5:50:53 pm

Latest Report: Jan 22, 2017 at 5:20 pm


Visibility: 4 mi

Pressure: 30.33 "Hg

Humidity: 87%

Dew Point: 28 °F

Location of Brandenburg an der HavelLocation

Past Weather in Brandenburg an der Havel — Graph

°F

Brandenburg an der Havel Temperature Yesterday

Maximum temperature yesterday: 37 °F (at 11:50 am)
Minimum temperature yesterday: 34 °F (at 12:20 am)
Average temperature yesterday: 35 °F

High & Low Weather Summary for the Past Weeks

 TemperatureHumidityPressure
High41 °F (Jan 12, 1:50 pm)100% (Jan 7, 5:50 pm)30.77 "Hg (Jan 7, 5:50 pm)
Low18 °F (Jan 17, 7:20 am)65% (Jan 10, 1:20 pm)29.00 "Hg (Jan 13, 7:50 am)
Average30 °F89%30.16 "Hg
* Reported Jan 7 4:20 pm — Jan 22 4:50 pm, Brandenburg an der Havel, Weather by CustomWeather, © 2017

Note: Actual official high and low records may vary slightly from our data, if they occured in-between our weather recording intervals... More about our weather records

Advertising

Brandenburg an der Havel Weather History for the Previous 24 Hours

Scroll right to see more
 ConditionsComfort  
Time TempWeatherWind HumidityBarometerVisibility
4:50 pm
Sun, Jan 22
34 °FClear.6 mph87%30.33 "Hg4 mi
4:20 pm34 °FPassing clouds.6 mph87%30.33 "HgN/A
3:50 pm36 °FPassing clouds.7 mph81%30.33 "HgN/A
3:20 pm37 °FPassing clouds.7 mph70%30.33 "HgN/A
2:50 pm39 °FPassing clouds.7 mph70%30.33 "HgN/A
2:20 pm39 °FPassing clouds.6 mph65%30.33 "HgN/A
1:50 pm39 °FPassing clouds.6 mph65%30.36 "HgN/A
1:20 pm39 °FPassing clouds.8 mph65%30.36 "HgN/A
12:50 pm37 °FPassing clouds.6 mph70%30.36 "HgN/A
12:20 pm36 °FPassing clouds.7 mph75%30.36 "HgN/A
11:50 am36 °FPassing clouds.9 mph75%30.39 "Hg6 mi
11:20 am34 °FPassing clouds.8 mph87%30.39 "Hg6 mi
10:50 am34 °FPassing clouds.8 mph81%30.39 "Hg6 mi
10:20 am34 °FPassing clouds.8 mph87%30.42 "Hg6 mi
9:50 am34 °FPassing clouds.6 mph87%30.42 "Hg6 mi
9:20 am32 °FScattered clouds.7 mph93%30.42 "Hg6 mi
8:50 am32 °FScattered clouds.6 mph87%30.42 "Hg6 mi
8:20 am32 °FScattered clouds.6 mph87%30.42 "Hg6 mi
7:50 am32 °FPassing clouds.7 mph93%30.42 "Hg6 mi
7:20 am30 °FPassing clouds.6 mph93%30.42 "HgN/A
6:50 am32 °FPassing clouds.9 mph87%30.42 "HgN/A
6:20 am32 °FPassing clouds.7 mph93%30.42 "HgN/A
5:50 am32 °FPassing clouds.8 mph93%30.42 "HgN/A
5:20 am32 °FPassing clouds.12 mph93%30.42 "HgN/A
4:50 am32 °FPassing clouds.8 mph93%30.42 "HgN/A
4:20 am32 °FPassing clouds.9 mph93%30.42 "HgN/A
3:50 am34 °FPassing clouds.8 mph87%30.45 "HgN/A
3:20 am34 °FPassing clouds.8 mph87%30.45 "HgN/A
2:50 am34 °FPassing clouds.12 mph87%30.45 "HgN/A
2:20 am34 °FPassing clouds.7 mph93%30.45 "HgN/A
1:50 am36 °FPassing clouds.8 mph87%30.45 "HgN/A
1:20 am36 °FPassing clouds.7 mph87%30.45 "HgN/A
12:50 am36 °FPassing clouds.7 mph87%30.45 "HgN/A
12:20 am36 °FPassing clouds.6 mph87%30.48 "HgN/A
11:50 pm
Sat, Jan 21
36 °FPassing clouds.7 mph87%30.48 "HgN/A
11:20 pm36 °FPassing clouds.3 mph87%30.48 "HgN/A
10:50 pm36 °FPassing clouds.3 mph87%30.48 "HgN/A
10:20 pm36 °FPassing clouds.3 mph87%30.48 "HgN/A
9:50 pm36 °FPassing clouds.3 mph87%30.48 "HgN/A
9:20 pm36 °FPassing clouds.5 mph87%30.48 "HgN/A
8:50 pm36 °FPassing clouds.1 mph93%30.48 "HgN/A
8:20 pm36 °FPassing clouds.2 mph87%30.48 "HgN/A
7:50 pm36 °FPassing clouds.2 mph87%30.48 "HgN/A
7:20 pm36 °FPartly cloudy.3 mph93%30.48 "HgN/A
6:50 pm36 °FPartly cloudy.3 mph93%30.48 "HgN/A
6:20 pm36 °FPartly cloudy.5 mph93%30.48 "HgN/A
5:50 pm36 °FPartly cloudy.3 mph93%30.48 "HgN/A
5:20 pm36 °FPartly cloudy.3 mph93%30.48 "HgN/A
Weather by CustomWeather, © 2017

See weather overviewHow to use our weather pages